This demonstration page uses our WeatherBlox Daily Observations layout. Learn more.

38.88101, -77.10428

Hourly Observations for March 10, 2020

Temp ( °F °C ) Dew Point ( °F °C ) Humidity (%) Winds ( mph kmh ) Pressure ( in mb ) Visibility ( mi km ) Precip ( " mm )
12:52 am 00:52 Mostly Cloudy 57 13.9 39 3.9 51 51 S 9 15 30.29 1026 10 16.0934 0 0
1:52 am 01:52 Cloudy 57 13.9 40 4.4 53 53 S 6 9 30.27 1025 10 16.0934 0 0
2:52 am 02:52 Cloudy 59 15 41 5 51 51 SSW 10 17 30.25 1024 10 16.0934 0 0
3:52 am 03:52 Cloudy 58 14.4 42 5.6 56 56 SSW 7 11 30.23 1024 10 16.0934 0 0
4:52 am 04:52 Cloudy 54 12.2 44 6.7 69 69 S 8 13 30.22 1023 10 16.0934 0 0
5:52 am 05:52 Cloudy 54 12.2 45 7.2 72 72 S 9 15 30.21 1023 10 16.0934 0 0
6:52 am 06:52 Cloudy 55 12.8 46 7.8 72 72 S 10 17 30.21 1023 10 16.0934 0 0
7:52 am 07:52 Cloudy 58 14.4 45 7.2 62 62 SSW 12 19 30.22 1023 10 16.0934 0 0
8:52 am 08:52 Cloudy 56 13.3 49 9.4 77 77 SSW 8 13 30.2 1023 10 16.0934 0.01 0.254
9:52 am 09:52 Cloudy with Light Rain 59 15 49 9.4 69 69 SSW 14 22 30.19 1022 10 16.0934 0.001 0.001
10:52 am 10:52 Cloudy 60 15.6 50 10 70 70 SSW 17 28 30.16 1021 10 16.0934 0.001 0.001
11:52 am 11:52 Cloudy 62 16.7 51 10.6 67 67 SSW 17 28 30.14 1021 10 16.0934 0 0
12:52 pm 12:52 Cloudy 64 17.8 53 11.7 68 68 S 10 17 30.1 1019 10 16.0934 0.001 0.001
1:52 pm 13:52 Cloudy 67 19.4 51 10.6 57 57 SW 20 31 30.07 1018 10 16.0934 0 0
2:52 pm 14:52 Mostly Cloudy 71 21.7 50 10 47 47 SSW 23 37 30.02 1017 10 16.0934 0 0
3:52 pm 15:52 Mostly Cloudy 70 21.1 50 10 49 49 SSW 20 31 30 1016 10 16.0934 0 0
4:52 pm 16:52 Mostly Cloudy 71 21.7 50 10 47 47 SSW 17 28 29.98 1015 10 16.0934 0 0
5:52 pm 17:52 Mostly Cloudy 70 21.1 51 10.6 51 51 SSW 15 24 29.98 1015 10 16.0934 0 0
6:52 pm 18:52 Mostly Cloudy 69 20.6 51 10.6 53 53 SW 16 26 29.99 1016 10 16.0934 0 0
7:52 pm 19:52 Mostly Cloudy 68 20 51 10.6 55 55 SW 13 20 30 1016 10 16.0934 0 0
8:52 pm 20:52 Mostly Cloudy 66 18.9 51 10.6 59 59 SSW 10 17 30.01 1016 10 16.0934 0 0
9:52 pm 21:52 Mostly Cloudy 67 19.4 51 10.6 57 57 WSW 10 17 30.02 1017 10 16.0934 0 0
10:18 pm 22:18 Cloudy with Light Rain 62 16.7 55 12.8 78 78 NW 16 26 30.07 1018 9 14.48406 0.001 0.001
10:52 pm 22:52 Cloudy 62 16.7 54 12.2 75 75 NW 12 19 30.08 1019 10 16.0934 0.001 0.001
11:52 pm 23:52 Partly Cloudy 60 15.6 50 10 70 70 NW 12 19 30.09 1019 10 16.0934 0 0

Powered by AerisWeather